| time (UTC) | temp F | wind direction | speed MPH | gust MPH | rain 1hr in | rain 24hr in | rain mn in | humidity % | barometer mb |
| 20260905111407 | 68 | 173 | 0.0 | 0.0 | 0.00 | 3.45 | 3.22 | 100 | 1012.3 |
| 20260905110850 | 68 | 172 | 0.0 | 0.0 | 0.00 | 3.45 | 3.22 | 100 | 1012.5 |
| 20260905110825 | 68 | 172 | 0.0 | 0.0 | 0.00 | 3.45 | 3.22 | 100 | 1012.5 |
| 20260905105830 | 68 | 172 | 0.0 | 0.0 | 0.00 | 3.45 | 3.22 | 100 | 1012.5 |
| 20260905105330 | 68 | 172 | 0.0 | 0.0 | 0.00 | 3.45 | 3.22 | 100 | 1012.6 |
| 20260905104814 | 68 | 173 | 0.0 | 0.0 | 0.00 | 3.45 | 3.22 | 100 | 1012.7 |
| 20260905104311 | 68 | 173 | 0.0 | 0.0 | 0.00 | 3.45 | 3.22 | 100 | 1012.7 |
| 20260905103759 | 68 | 173 | 0.0 | 0.0 | 0.00 | 3.45 | 3.22 | 100 | 1012.8 |
| 20260905103523 | 68 | 172 | 0.0 | 0.0 | 0.00 | 3.45 | 3.22 | 100 | 1012.7 |
| 20260905102743 | 68 | 172 | 0.0 | 0.0 | 0.00 | 3.45 | 3.22 | 100 | 1012.7 |
| 20260905102457 | 68 | 172 | 0.0 | 0.0 | 0.00 | 3.45 | 3.22 | 100 | 1012.7 |
| 20260905101732 | 68 | 173 | 0.0 | 0.0 | 0.00 | 3.45 | 3.22 | 100 | 1012.7 |
| 20260905101233 | 68 | 172 | 0.0 | 0.0 | 0.00 | 3.45 | 3.22 | 100 | 1012.6 |
| 20260905100720 | 68 | 173 | 0.0 | 0.0 | 0.00 | 3.45 | 3.22 | 100 | 1012.4 |
| 20260905100212 | 68 | 173 | 0.0 | 0.0 | 0.00 | 3.45 | 3.22 | 100 | 1012.2 |
| 20260905095700 | 68 | 173 | 0.0 | 0.0 | 0.00 | 3.45 | 3.22 | 100 | 1012.3 |
| 20260905095156 | 67 | 172 | 0.0 | 0.0 | 0.00 | 3.45 | 3.22 | 100 | 1012.3 |
| 20260905094904 | 67 | 173 | 0.0 | 0.0 | 0.00 | 3.45 | 3.22 | 100 | 1012.1 |
| 20260905094131 | 67 | 172 | 0.0 | 0.0 | 0.00 | 3.45 | 3.22 | 100 | 1012.1 |
| 20260905093627 | 67 | 173 | 0.0 | 0.0 | 0.00 | 3.45 | 3.22 | 100 | 1012.1 |
| 20260905093337 | 67 | 173 | 0.0 | 0.0 | 0.00 | 3.45 | 3.22 | 100 | 1012.2 |
| 20260905092835 | 67 | 172 | 0.0 | 0.0 | 0.00 | 3.45 | 3.22 | 100 | 1012.1 |
| 20260905092601 | 67 | 172 | 0.0 | 0.0 | 0.00 | 3.45 | 3.22 | 100 | 1012.1 |
| 20260905091602 | 67 | 172 | 0.0 | 0.0 | 0.00 | 3.45 | 3.22 | 100 | 1012.0 |
| 20260905091102 | 67 | 173 | 0.0 | 0.0 | 0.00 | 3.45 | 3.22 | 100 | 1012.0 |
| 20260905090549 | 67 | 173 | 0.0 | 0.0 | 0.00 | 3.45 | 3.22 | 100 | 1011.7 |
| 20260905090042 | 67 | 173 | 0.0 | 0.0 | 0.00 | 3.45 | 3.22 | 100 | 1011.8 |
| 20260905085525 | 67 | 173 | 0.0 | 0.0 | 0.00 | 3.45 | 3.22 | 100 | 1011.6 |
| 20260905085240 | 67 | 172 | 0.0 | 0.0 | 0.00 | 3.45 | 3.22 | 100 | 1011.5 |
| 20260905084458 | 67 | 172 | 0.0 | 0.0 | 0.00 | 3.45 | 3.22 | 100 | 1011.3 |
| 20260905083946 | 67 | 173 | 0.0 | 0.0 | 0.00 | 3.45 | 3.22 | 100 | 1011.1 |
| 20260905083648 | 67 | 173 | 0.0 | 0.0 | 0.00 | 3.45 | 3.22 | 100 | 1011.1 |
| 20260905082923 | 67 | 173 | 0.0 | 0.0 | 0.00 | 3.45 | 3.22 | 100 | 1011.2 |
| 20260905082412 | 67 | 173 | 0.0 | 0.0 | 0.00 | 3.45 | 3.22 | 100 | 1011.4 |
| 20260905082355 | 67 | 172 | 0.0 | 0.0 | 0.00 | 3.45 | 3.22 | 100 | 1011.4 |
| 20260905081354 | 67 | 173 | 0.0 | 0.0 | 0.00 | 3.45 | 3.22 | 100 | 1011.4 |
| 20260905080835 | 67 | 173 | 0.0 | 0.0 | 0.00 | 3.45 | 3.22 | 100 | 1011.5 |
| 20260905080325 | 67 | 173 | 0.0 | 0.0 | 0.00 | 3.45 | 3.22 | 100 | 1011.7 |
| 20260905075824 | 67 | 173 | 0.0 | 0.0 | 0.00 | 3.45 | 3.22 | 100 | 1011.7 |
| 20260905075320 | 67 | 172 | 0.0 | 0.0 | 0.00 | 3.45 | 3.22 | 100 | 1011.7 |
| 20260905074807 | 67 | 173 | 0.0 | 0.0 | 0.00 | 3.45 | 3.22 | 100 | 1011.6 |
| 20260905074255 | 68 | 173 | 0.0 | 0.0 | 0.00 | 3.45 | 3.22 | 100 | 1011.7 |
| 20260905073834 | 68 | 173 | 0.0 | 0.0 | 0.00 | 3.45 | 3.22 | 100 | 1011.7 |
| 20260905072745 | 68 | 173 | 0.0 | 0.0 | 0.00 | 3.45 | 3.22 | 100 | 1011.7 |
| 20260905072504 | 68 | 172 | 0.0 | 0.0 | 0.00 | 3.45 | 3.22 | 100 | 1011.7 |
| 20260905071726 | 68 | 173 | 0.0 | 0.0 | 0.00 | 3.45 | 3.22 | 100 | 1011.5 |
| 20260905071435 | 68 | 172 | 0.0 | 0.0 | 0.00 | 3.45 | 3.22 | 100 | 1011.5 |
| 20260905070712 | 68 | 173 | 0.0 | 0.0 | 0.00 | 3.45 | 3.22 | 100 | 1011.4 |
| 20260905070209 | 68 | 173 | 0.0 | 0.0 | 0.00 | 3.45 | 3.22 | 100 | 1011.4 |
| 20260905065633 | 68 | 172 | 0.0 | 0.0 | 0.00 | 3.45 | 3.22 | 100 | 1011.5 |
| 20260905065125 | 68 | 173 | 0.0 | 0.0 | 0.00 | 3.45 | 3.22 | 100 | 1011.6 |
| 20260905064628 | 68 | 173 | 0.0 | 0.0 | 0.00 | 3.45 | 3.22 | 100 | 1011.7 |
| 20260905064121 | 68 | 173 | 0.0 | 0.0 | 0.00 | 3.45 | 3.22 | 100 | 1011.8 |
| 20260905063611 | 68 | 172 | 0.0 | 0.0 | 0.00 | 3.45 | 3.22 | 100 | 1011.9 |
| 20260905063109 | 68 | 173 | 0.0 | 0.0 | 0.00 | 3.45 | 3.22 | 100 | 1011.9 |
| 20260905062549 | 68 | 172 | 0.0 | 0.0 | 0.00 | 3.45 | 3.22 | 100 | 1012.1 |
| 20260905062048 | 68 | 173 | 0.0 | 0.0 | 0.00 | 3.45 | 3.22 | 100 | 1012.0 |
| 20260905061530 | 68 | 173 | 0.0 | 0.0 | 0.00 | 3.45 | 3.22 | 100 | 1012.2 |
| 20260905061505 | 68 | 172 | 0.0 | 0.0 | 0.00 | 3.45 | 3.22 | 100 | 1012.2 |
| 20260905061004 | 68 | 172 | 0.0 | 0.0 | 0.09 | 3.45 | 3.22 | 100 | 1012.2 |
| 20260905060234 | 68 | 172 | 0.0 | 0.0 | 0.09 | 3.45 | 3.22 | 100 | 1012.3 |
| 20260905055455 | 67 | 173 | 0.0 | 0.0 | 1.14 | 3.45 | 3.22 | 100 | 1012.6 |
| 20260905055220 | 67 | 172 | 0.0 | 0.0 | 1.73 | 3.45 | 3.22 | 100 | 1012.5 |
| 20260905054451 | 67 | 172 | 0.0 | 0.0 | 1.86 | 3.45 | 3.22 | 100 | 1012.6 |
| 20260905053948 | 67 | 172 | 0.0 | 0.0 | 1.91 | 3.45 | 3.22 | 100 | 1012.7 |
| 20260905053449 | 67 | 173 | 0.0 | 0.0 | 1.97 | 3.45 | 3.22 | 100 | 1012.6 |
| 20260905052935 | 67 | 172 | 0.0 | 0.0 | 2.28 | 3.45 | 3.22 | 100 | 1012.7 |
| 20260905052435 | 67 | 172 | 0.0 | 0.0 | 2.39 | 3.45 | 3.22 | 100 | 1012.7 |
| 20260905051928 | 67 | 172 | 0.0 | 0.0 | 2.98 | 3.45 | 3.22 | 100 | 1012.7 |
| 20260905051649 | 67 | 172 | 0.0 | 0.0 | 3.22 | 3.45 | 3.22 | 100 | 1012.7 |
| 20260905050915 | 67 | 172 | 0.0 | 0.0 | 3.22 | 3.45 | 3.22 | 99 | 1012.7 |
| 20260905050411 | 67 | 172 | 0.0 | 0.0 | 3.13 | 3.36 | 3.13 | 99 | 1012.5 |
| 20260905050357 | 67 | 172 | 0.0 | 0.0 | 3.13 | 3.36 | 3.13 | 99 | 1012.6 |
| 20260905045356 | 67 | 172 | 0.0 | 0.0 | 1.84 | 2.07 | 1.96 | 99 | 1012.7 |
| 20260905044855 | 67 | 172 | 0.0 | 0.0 | 1.49 | 1.72 | 1.49 | 99 | 1012.6 |
| 20260905044355 | 67 | 172 | 0.0 | 0.0 | 1.36 | 1.59 | 1.36 | 99 | 1012.7 |
| 20260905043828 | 67 | 172 | 0.0 | 0.0 | 1.28 | 1.51 | 1.28 | 99 | 1012.7 |
| 20260905043545 | 67 | 172 | 0.0 | 0.0 | 1.25 | 1.48 | 1.25 | 99 | 1012.7 |
| 20260905042817 | 67 | 172 | 0.0 | 0.0 | 0.92 | 1.15 | 0.94 | 99 | 1012.8 |
| 20260905042309 | 67 | 172 | 0.0 | 0.0 | 0.46 | 0.69 | 0.68 | 99 | 1012.8 |
| 20260905041749 | 67 | 173 | 0.0 | 0.0 | 0.00 | 0.23 | 0.12 | 99 | 1012.9 |
| 20260905041250 | 67 | 172 | 0.0 | 0.0 | 0.00 | 0.23 | 0.00 | 99 | 1012.9 |
| 20260905040749 | 67 | 173 | 0.0 | 0.0 | 0.00 | 0.23 | 0.00 | 99 | 1012.8 |
| 20260905040246 | 67 | 172 | 0.0 | 0.0 | 0.00 | 0.23 | 0.00 | 99 | 1012.9 |
| 20260905035722 | 67 | 172 | 0.0 | 0.0 | 0.00 | 0.23 | 0.23 | 99 | 1012.8 |
| 20260905035219 | 68 | 172 | 0.0 | 0.0 | 0.00 | 0.23 | 0.23 | 99 | 1012.9 |
| 20260905034716 | 68 | 172 | 0.0 | 0.0 | 0.00 | 0.23 | 0.23 | 99 | 1012.9 |
| 20260905034203 | 68 | 172 | 0.0 | 0.0 | 0.00 | 0.23 | 0.23 | 99 | 1012.8 |
| 20260905033701 | 68 | 172 | 0.0 | 0.0 | 0.00 | 0.23 | 0.23 | 99 | 1012.9 |
| 20260905033203 | 68 | 172 | 0.0 | 0.0 | 0.00 | 0.23 | 0.23 | 99 | 1012.9 |
| 20260905032650 | 68 | 173 | 0.0 | 0.0 | 0.00 | 0.23 | 0.23 | 99 | 1012.7 |
| 20260905032146 | 68 | 172 | 0.0 | 0.0 | 0.00 | 0.23 | 0.23 | 99 | 1012.8 |
| 20260905031647 | 68 | 172 | 0.0 | 0.0 | 0.00 | 0.23 | 0.23 | 99 | 1012.8 |
| 20260905031146 | 68 | 172 | 0.0 | 0.0 | 0.00 | 0.23 | 0.23 | 99 | 1012.8 |
| 20260905030617 | 68 | 172 | 0.0 | 0.0 | 0.00 | 0.23 | 0.23 | 99 | 1012.8 |
| 20260905030114 | 69 | 172 | 0.0 | 0.0 | 0.00 | 0.23 | 0.23 | 99 | 1012.8 |
| 20260905025609 | 69 | 172 | 0.0 | 0.0 | 0.00 | 0.23 | 0.23 | 99 | 1012.8 |
| 20260905025113 | 69 | 172 | 0.0 | 0.0 | 0.00 | 0.23 | 0.23 | 99 | 1012.8 |
| 20260905024557 | 69 | 172 | 0.0 | 0.0 | 0.00 | 0.23 | 0.23 | 99 | 1013.0 |
| 20260905024055 | 69 | 172 | 0.0 | 0.0 | 0.00 | 0.23 | 0.23 | 99 | 1013.1 |
| 20260905023811 | 69 | 172 | 0.0 | 0.0 | 0.00 | 0.23 | 0.23 | 99 | 1013.2 |
| 20260905023041 | 69 | 172 | 0.0 | 0.0 | 0.00 | 0.23 | 0.23 | 99 | 1013.0 |
| 20260905022533 | 69 | 172 | 0.0 | 0.0 | 0.00 | 0.23 | 0.23 | 99 | 1013.1 |
| 20260905022104 | 69 | 172 | 0.0 | 0.0 | 0.00 | 0.23 | 0.23 | 99 | 1012.9 |
| 20260905021014 | 69 | 172 | 0.0 | 0.0 | 0.00 | 0.23 | 0.23 | 99 | 1013.0 |
| 20260905020510 | 69 | 173 | 0.0 | 0.0 | 0.00 | 0.23 | 0.23 | 99 | 1013.2 |
| 20260905020009 | 69 | 172 | 0.0 | 0.0 | 0.00 | 0.23 | 0.23 | 98 | 1013.1 |
| 20260905015511 | 69 | 173 | 0.0 | 0.0 | 0.00 | 0.23 | 0.23 | 98 | 1013.1 |
| 20260905015228 | 69 | 173 | 0.0 | 0.0 | 0.00 | 0.23 | 0.23 | 98 | 1013.1 |
| 20260905014444 | 69 | 172 | 0.0 | 0.0 | 0.00 | 0.23 | 0.23 | 98 | 1013.0 |
| 20260905013945 | 69 | 172 | 0.0 | 0.0 | 0.00 | 0.23 | 0.23 | 98 | 1012.9 |
| 20260905013419 | 69 | 172 | 0.0 | 0.0 | 0.00 | 0.23 | 0.23 | 98 | 1013.1 |
| 20260905012920 | 69 | 172 | 0.0 | 0.0 | 0.00 | 0.23 | 0.23 | 98 | 1013.0 |
| 20260905012351 | 69 | 172 | 0.0 | 0.0 | 0.00 | 0.23 | 0.23 | 98 | 1013.0 |
| 20260905011847 | 69 | 172 | 0.0 | 0.0 | 0.00 | 0.23 | 0.23 | 98 | 1013.0 |
| 20260905011347 | 69 | 172 | 0.0 | 0.0 | 0.00 | 0.23 | 0.23 | 98 | 1012.9 |
| 20260905011326 | 69 | 173 | 0.0 | 0.0 | 0.00 | 0.23 | 0.23 | 97 | 1012.9 |
| 20260905010332 | 69 | 172 | 0.0 | 0.0 | 0.00 | 0.23 | 0.23 | 97 | 1013.0 |
| 20260905005828 | 69 | 173 | 0.0 | 0.0 | 0.00 | 0.23 | 0.23 | 97 | 1013.0 |
| 20260905005314 | 69 | 172 | 0.0 | 0.0 | 0.00 | 0.23 | 0.23 | 97 | 1013.0 |
| 20260905005043 | 69 | 172 | 0.0 | 0.0 | 0.00 | 0.23 | 0.23 | 97 | 1013.2 |
| 20260905004257 | 69 | 172 | 0.0 | 0.0 | 0.00 | 0.23 | 0.23 | 97 | 1013.1 |
| 20260905003750 | 69 | 172 | 0.0 | 0.0 | 0.00 | 0.23 | 0.23 | 96 | 1013.1 |
| 20260905003501 | 70 | 172 | 0.0 | 0.0 | 0.00 | 0.23 | 0.23 | 96 | 1013.0 |
| 20260905002742 | 70 | 172 | 0.0 | 0.0 | 0.00 | 0.23 | 0.23 | 96 | 1013.0 |
| 20260905002240 | 70 | 172 | 0.0 | 0.0 | 0.00 | 0.23 | 0.23 | 96 | 1013.0 |
| 20260905001738 | 70 | 173 | 0.0 | 0.0 | 0.00 | 0.23 | 0.23 | 96 | 1013.1 |
| 20260905001215 | 71 | 172 | 0.0 | 0.0 | 0.00 | 0.23 | 0.23 | 96 | 1013.1 |
| 20260905000712 | 71 | 172 | 0.0 | 0.0 | 0.00 | 0.23 | 0.23 | 96 | 1013.2 |
| 20260905000211 | 71 | 172 | 0.0 | 0.0 | 0.00 | 0.23 | 0.23 | 96 | 1013.2 |
| 20260904235721 | 71 | 172 | 0.0 | 0.0 | 0.00 | 0.23 | 0.23 | 95 | 1013.2 |
| 20260904235158 | 71 | 173 | 0.0 | 0.0 | 0.00 | 0.23 | 0.23 | 95 | 1013.1 |
| 20260904234651 | 71 | 173 | 0.0 | 0.0 | 0.00 | 0.23 | 0.23 | 95 | 1013.1 |
| 20260904234141 | 72 | 172 | 0.0 | 0.0 | 0.00 | 0.23 | 0.23 | 95 | 1013.2 |
| 20260904233640 | 72 | 173 | 0.0 | 0.0 | 0.00 | 0.23 | 0.23 | 95 | 1013.2 |
| 20260904233117 | 72 | 172 | 0.0 | 0.0 | 0.00 | 0.23 | 0.23 | 94 | 1013.2 |
| 20260904232618 | 72 | 172 | 0.0 | 0.0 | 0.00 | 0.23 | 0.23 | 94 | 1013.2 |
| 20260904232117 | 72 | 172 | 0.0 | 0.0 | 0.00 | 0.23 | 0.23 | 94 | 1013.2 |
| 20260904231617 | 72 | 173 | 0.0 | 0.0 | 0.00 | 0.23 | 0.23 | 93 | 1013.2 |
| 20260904231119 | 72 | 173 | 0.0 | 0.0 | 0.00 | 0.23 | 0.23 | 93 | 1013.2 |
| 20260904230611 | 73 | 172 | 0.0 | 0.0 | 0.00 | 0.23 | 0.23 | 92 | 1013.2 |
| 20260904230333 | 73 | 172 | 0.0 | 0.0 | 0.00 | 0.23 | 0.23 | 92 | 1013.1 |
| 20260904225555 | 73 | 173 | 0.0 | 0.0 | 0.00 | 0.23 | 0.23 | 92 | 1013.1 |
| 20260904225055 | 73 | 172 | 0.0 | 0.0 | 0.00 | 0.23 | 0.23 | 92 | 1013.1 |
| 20260904224551 | 73 | 173 | 0.0 | 0.0 | 0.00 | 0.23 | 0.23 | 91 | 1013.2 |
| 20260904224306 | 73 | 173 | 0.0 | 0.0 | 0.00 | 0.23 | 0.23 | 90 | 1013.0 |
| 20260904223538 | 73 | 173 | 0.0 | 0.0 | 0.00 | 0.23 | 0.23 | 90 | 1012.9 |
| 20260904223032 | 73 | 173 | 0.0 | 0.0 | 0.00 | 0.23 | 0.23 | 90 | 1013.0 |
| 20260904222757 | 74 | 173 | 0.0 | 0.0 | 0.00 | 0.23 | 0.23 | 90 | 1013.0 |
| 20260904222014 | 74 | 172 | 0.0 | 0.0 | 0.00 | 0.23 | 0.23 | 89 | 1012.8 |
| 20260904221949 | 74 | 172 | 0.0 | 0.0 | 0.00 | 0.23 | 0.23 | 88 | 1012.9 |
| 20260904221011 | 74 | 173 | 0.0 | 0.0 | 0.00 | 0.23 | 0.23 | 88 | 1012.9 |
| 20260904220441 | 74 | 172 | 0.0 | 0.0 | 0.00 | 0.23 | 0.23 | 89 | 1012.9 |
| 20260904215934 | 74 | 173 | 0.0 | 0.0 | 0.00 | 0.23 | 0.23 | 90 | 1013.0 |
| 20260904215437 | 75 | 173 | 0.0 | 0.0 | 0.00 | 0.23 | 0.23 | 91 | 1012.7 |
| 20260904214907 | 75 | 173 | 0.0 | 0.0 | 0.00 | 0.23 | 0.23 | 90 | 1012.6 |
| 20260904214405 | 75 | 173 | 0.0 | 0.0 | 0.00 | 0.23 | 0.23 | 91 | 1012.6 |
| 20260904213839 | 75 | 173 | 0.0 | 0.0 | 0.00 | 0.23 | 0.23 | 91 | 1012.5 |
| 20260904213333 | 75 | 173 | 0.0 | 0.0 | 0.00 | 0.23 | 0.23 | 92 | 1012.3 |
| 20260904212810 | 75 | 173 | 0.0 | 0.0 | 0.00 | 0.23 | 0.23 | 91 | 1012.1 |
| 20260904212306 | 75 | 173 | 0.0 | 0.0 | 0.00 | 0.23 | 0.23 | 92 | 1012.1 |
| 20260904211807 | 75 | 173 | 0.0 | 0.0 | 0.00 | 0.23 | 0.23 | 93 | 1012.1 |
| 20260904211253 | 75 | 173 | 0.0 | 0.0 | 0.00 | 0.23 | 0.23 | 93 | 1012.0 |
| 20260904210749 | 75 | 173 | 0.0 | 0.0 | 0.00 | 0.23 | 0.23 | 94 | 1011.9 |
| 20260904210246 | 75 | 173 | 0.0 | 0.0 | 0.00 | 0.23 | 0.23 | 94 | 1011.7 |
| 20260904205737 | 74 | 173 | 0.0 | 0.0 | 0.00 | 0.23 | 0.23 | 94 | 1011.6 |
| 20260904205456 | 74 | 173 | 0.0 | 0.0 | 0.00 | 0.23 | 0.23 | 95 | 1011.6 |
| 20260904204728 | 74 | 173 | 0.0 | 0.0 | 0.00 | 0.23 | 0.23 | 95 | 1011.6 |
| 20260904204217 | 74 | 173 | 0.0 | 0.0 | 0.00 | 0.23 | 0.23 | 95 | 1011.6 |
| 20260904203719 | 74 | 173 | 0.0 | 0.0 | 0.00 | 0.23 | 0.23 | 96 | 1011.7 |
| 20260904203423 | 74 | 173 | 0.0 | 0.0 | 0.00 | 0.23 | 0.23 | 96 | 1011.8 |
| 20260904202704 | 74 | 173 | 0.0 | 0.0 | 0.00 | 0.23 | 0.23 | 98 | 1011.8 |
| 20260904202204 | 74 | 173 | 0.0 | 0.0 | 0.00 | 0.23 | 0.23 | 98 | 1012.0 |
| 20260904201704 | 73 | 173 | 0.0 | 0.0 | 0.00 | 0.23 | 0.23 | 99 | 1012.0 |
| 20260904201414 | 73 | 173 | 0.0 | 0.0 | 0.00 | 0.23 | 0.23 | 99 | 1012.0 |
| 20260904200635 | 73 | 172 | 0.0 | 0.0 | 0.00 | 0.23 | 0.23 | 100 | 1012.4 |
| 20260904200118 | 74 | 172 | 0.0 | 0.0 | 0.00 | 0.23 | 0.23 | 100 | 1012.5 |
| 20260904195830 | 73 | 172 | 0.0 | 0.0 | 0.00 | 0.23 | 0.23 | 100 | 1012.5 |
| 20260904195038 | 73 | 172 | 0.0 | 0.0 | 0.00 | 0.23 | 0.23 | 100 | 1012.6 |
| 20260904194536 | 73 | 172 | 0.0 | 0.0 | 0.00 | 0.23 | 0.23 | 100 | 1012.6 |
| 20260904194030 | 73 | 172 | 0.0 | 3.0 | 0.00 | 0.23 | 0.23 | 100 | 1012.6 |
| 20260904193529 | 72 | 172 | 1.0 | 3.0 | 0.00 | 0.23 | 0.23 | 100 | 1012.6 |
| 20260904193024 | 72 | 172 | 0.0 | 3.0 | 0.00 | 0.23 | 0.23 | 100 | 1012.8 |
| 20260904192521 | 72 | 242 | 0.0 | 3.0 | 0.00 | 0.23 | 0.23 | 100 | 1012.9 |
| 20260904192029 | 73 | 250 | 0.0 | 0.0 | 0.01 | 0.23 | 0.23 | 100 | 1013.2 |
| 20260904190932 | 73 | 163 | 0.0 | 0.0 | 0.01 | 0.23 | 0.23 | 100 | 1013.2 |
| 20260904190402 | 72 | 163 | 0.0 | 0.0 | 0.01 | 0.23 | 0.23 | 100 | 1013.2 |
| 20260904185902 | 72 | 163 | 0.0 | 0.0 | 0.01 | 0.23 | 0.23 | 100 | 1013.4 |
| 20260904185548 | 72 | 163 | 0.0 | 0.0 | 0.01 | 0.23 | 0.23 | 100 | 1013.6 |
| 20260904185050 | 72 | 163 | 0.0 | 0.0 | 0.01 | 0.23 | 0.23 | 100 | 1013.3 |
| 20260904184314 | 72 | 163 | 0.0 | 0.0 | 0.01 | 0.23 | 0.23 | 100 | 1013.2 |
| 20260904183805 | 71 | 163 | 0.0 | 0.0 | 0.01 | 0.23 | 0.23 | 100 | 1013.1 |
| 20260904183257 | 71 | 163 | 0.0 | 0.0 | 0.01 | 0.23 | 0.23 | 100 | 1012.9 |
| 20260904182758 | 71 | 163 | 0.0 | 0.0 | 0.01 | 0.23 | 0.23 | 100 | 1013.0 |
| 20260904182251 | 71 | 163 | 0.0 | 0.0 | 0.00 | 0.22 | 0.23 | 100 | 1012.9 |
| 20260904181728 | 71 | 163 | 0.0 | 0.0 | 0.00 | 0.22 | 0.22 | 100 | 1013.3 |
| 20260904181223 | 71 | 163 | 0.0 | 0.0 | 0.00 | 0.22 | 0.22 | 100 | 1013.4 |
| 20260904180708 | 71 | 163 | 0.0 | 0.0 | 0.00 | 0.22 | 0.22 | 100 | 1013.9 |
| 20260904180158 | 71 | 163 | 0.0 | 0.0 | 0.00 | 0.22 | 0.22 | 100 | 1014.4 |
| 20260904180121 | 71 | 163 | 0.0 | 0.0 | 0.00 | 0.22 | 0.22 | 100 | 1014.5 |
| 20260904175104 | 71 | 163 | 0.0 | 0.0 | 0.01 | 0.22 | 0.22 | 100 | 1014.7 |
| 20260904174558 | 71 | 163 | 0.0 | 0.0 | 0.01 | 0.22 | 0.22 | 100 | 1014.8 |
| 20260904174032 | 71 | 163 | 0.0 | 0.0 | 0.01 | 0.22 | 0.22 | 100 | 1014.6 |
| 20260904173505 | 71 | 163 | 0.0 | 0.0 | 0.01 | 0.22 | 0.22 | 100 | 1014.6 |
| 20260904173002 | 71 | 163 | 0.0 | 0.0 | 0.02 | 0.22 | 0.22 | 100 | 1014.7 |
| 20260904172458 | 71 | 163 | 0.0 | 0.0 | 0.02 | 0.22 | 0.22 | 100 | 1014.7 |
| 20260904171928 | 71 | 163 | 0.0 | 0.0 | 0.03 | 0.22 | 0.22 | 100 | 1014.8 |
| 20260904171430 | 70 | 163 | 0.0 | 0.0 | 0.03 | 0.22 | 0.22 | 100 | 1015.0 |
| 20260904170928 | 70 | 163 | 0.0 | 0.0 | 0.03 | 0.22 | 0.22 | 100 | 1014.9 |
| 20260904170407 | 70 | 163 | 0.0 | 0.0 | 0.04 | 0.22 | 0.22 | 100 | 1014.7 |
| 20260904165902 | 70 | 163 | 0.0 | 0.0 | 0.04 | 0.22 | 0.22 | 100 | 1014.8 |
| 20260904165400 | 70 | 163 | 0.0 | 0.0 | 0.04 | 0.22 | 0.22 | 100 | 1014.9 |
| 20260904164855 | 70 | 163 | 0.0 | 0.0 | 0.03 | 0.21 | 0.21 | 100 | 1015.0 |
| 20260904164327 | 70 | 163 | 0.0 | 0.0 | 0.03 | 0.21 | 0.21 | 100 | 1015.2 |
| 20260904163757 | 70 | 163 | 0.0 | 0.0 | 0.03 | 0.21 | 0.21 | 100 | 1015.3 |
| 20260904163514 | 70 | 163 | 0.0 | 0.0 | 0.02 | 0.20 | 0.20 | 100 | 1015.2 |
| 20260904162732 | 70 | 163 | 0.0 | 0.0 | 0.02 | 0.20 | 0.20 | 100 | 1015.2 |
| 20260904162452 | 70 | 163 | 0.0 | 0.0 | 0.01 | 0.19 | 0.20 | 100 | 1015.3 |
| 20260904161726 | 70 | 163 | 0.0 | 0.0 | 0.01 | 0.19 | 0.19 | 100 | 1015.4 |
| 20260904161156 | 70 | 163 | 0.0 | 0.0 | 0.01 | 0.19 | 0.19 | 100 | 1015.2 |
| 20260904160631 | 70 | 163 | 0.0 | 0.0 | 0.00 | 0.18 | 0.18 | 100 | 1015.3 |
| 20260904155529 | 70 | 163 | 0.0 | 0.0 | 0.02 | 0.18 | 0.18 | 100 | 1015.3 |
| 20260904155015 | 70 | 163 | 0.0 | 0.0 | 0.02 | 0.18 | 0.18 | 100 | 1015.2 |
| 20260904154457 | 70 | 163 | 0.0 | 0.0 | 0.02 | 0.18 | 0.18 | 100 | 1015.4 |
| 20260904153958 | 70 | 163 | 0.0 | 0.0 | 0.03 | 0.18 | 0.18 | 100 | 1015.1 |
| 20260904153426 | 70 | 163 | 0.0 | 0.0 | 0.03 | 0.18 | 0.18 | 100 | 1014.9 |
| 20260904152911 | 70 | 163 | 0.0 | 0.0 | 0.03 | 0.18 | 0.18 | 100 | 1015.0 |
| 20260904152606 | 69 | 163 | 0.0 | 0.0 | 0.03 | 0.18 | 0.18 | 100 | 1014.8 |
| 20260904151835 | 69 | 163 | 0.0 | 0.0 | 0.04 | 0.18 | 0.18 | 100 | 1014.5 |
| 20260904151328 | 69 | 163 | 0.0 | 0.0 | 0.04 | 0.18 | 0.18 | 100 | 1014.8 |
| 20260904150829 | 69 | 163 | 0.0 | 0.0 | 0.06 | 0.18 | 0.18 | 100 | 1014.9 |
| 20260904150301 | 69 | 163 | 0.0 | 0.0 | 0.08 | 0.17 | 0.17 | 100 | 1015.0 |
| 20260904145758 | 69 | 163 | 0.0 | 0.0 | 0.14 | 0.16 | 0.16 | 100 | 1015.1 |
| 20260904145255 | 69 | 163 | 0.0 | 0.0 | 0.16 | 0.16 | 0.16 | 100 | 1015.0 |
| 20260904145018 | 69 | 163 | 0.0 | 0.0 | 0.16 | 0.16 | 0.16 | 100 | 1015.0 |
| 20260904144227 | 69 | 163 | 0.0 | 0.0 | 0.15 | 0.15 | 0.15 | 100 | 1015.0 |
| 20260904143655 | 69 | 163 | 0.0 | 0.0 | 0.15 | 0.15 | 0.15 | 100 | 1014.9 |
| 20260904143144 | 69 | 163 | 0.0 | 0.0 | 0.15 | 0.15 | 0.15 | 100 | 1014.9 |
| 20260904142648 | 69 | 163 | 0.0 | 0.0 | 0.15 | 0.15 | 0.15 | 100 | 1014.9 |
| 20260904142138 | 69 | 163 | 0.0 | 0.0 | 0.15 | 0.15 | 0.15 | 100 | 1014.9 |
| 20260904141630 | 69 | 163 | 0.0 | 0.0 | 0.14 | 0.14 | 0.14 | 100 | 1014.7 |
| 20260904141125 | 69 | 163 | 0.0 | 3.0 | 0.13 | 0.13 | 0.14 | 100 | 1014.6 |
| 20260904140622 | 69 | 163 | 1.0 | 3.0 | 0.12 | 0.12 | 0.12 | 100 | 1015.0 |
| 20260904140118 | 69 | 163 | 1.0 | 3.0 | 0.05 | 0.05 | 0.06 | 100 | 1015.1 |
| 20260904135619 | 69 | 192 | 1.0 | 3.0 | 0.00 | 0.00 | 0.00 | 100 | 1015.5 |
| 20260904135104 | 69 | 160 | 0.0 | 3.0 | 0.00 | 0.00 | 0.00 | 100 | 1015.9 |
| 20260904134558 | 69 | 172 | 0.0 | 0.0 | 0.00 | 0.00 | 0.00 | 100 | 1015.2 |
| 20260904134052 | 69 | 172 | 0.0 | 0.0 | 0.00 | 0.00 | 0.00 | 100 | 1014.6 |
| 20260904133741 | 69 | 172 | 0.0 | 0.0 | 0.00 | 0.00 | 0.00 | 100 | 1014.4 |
| 20260904133019 | 69 | 172 | 0.0 | 0.0 | 0.00 | 0.00 | 0.00 | 100 | 1014.3 |
| 20260904132520 | 69 | 172 | 0.0 | 0.0 | 0.00 | 0.00 | 0.00 | 100 | 1014.4 |
| 20260904131954 | 69 | 172 | 0.0 | 0.0 | 0.00 | 0.00 | 0.00 | 100 | 1014.1 |
| 20260904131449 | 69 | 172 | 0.0 | 0.0 | 0.00 | 0.00 | 0.00 | 100 | 1014.1 |
| 20260904130925 | 69 | 172 | 0.0 | 0.0 | 0.00 | 0.00 | 0.00 | 100 | 1014.1 |
| 20260904130404 | 69 | 172 | 0.0 | 0.0 | 0.00 | 0.00 | 0.00 | 100 | 1014.0 |
| 20260904125904 | 69 | 172 | 0.0 | 0.0 | 0.00 | 0.00 | 0.00 | 100 | 1014.0 |
| 20260904125352 | 68 | 172 | 0.0 | 0.0 | 0.00 | 0.00 | 0.00 | 100 | 1014.0 |
| 20260904124842 | 68 | 172 | 0.0 | 0.0 | 0.00 | 0.00 | 0.00 | 100 | 1014.3 |
| 20260904124319 | 68 | 172 | 0.0 | 0.0 | 0.00 | 0.00 | 0.00 | 100 | 1014.3 |
| 20260904123812 | 68 | 172 | 0.0 | 0.0 | 0.00 | 0.00 | 0.00 | 100 | 1014.3 |
| 20260904123516 | 68 | 172 | 0.0 | 0.0 | 0.00 | 0.00 | 0.00 | 100 | 1014.3 |
| 20260904122750 | 68 | 0.0 | 0.0 | 0.00 | 0.00 | 0.00 | 100 | 1014.4 | |
| 20260904122250 | 0 | 0.0 | 0.0 | 0.00 | 0.00 | 0.00 | |||
| 20260904121740 | 0 | 0.0 | 0.0 | 0.00 | 0.00 | 0.00 | |||
| 20260904114301 | 67 | 172 | 0.0 | 0.0 | 0.00 | 0.00 | 0.00 | 100 | 1051.6 |
| 20260904113610 | 67 | 172 | 0.0 | 0.0 | 0.00 | 0.00 | 0.00 | 100 | 1013.9 |
| 20260904113209 | 67 | 172 | 0.0 | 0.0 | 0.00 | 0.00 | 0.00 | 100 | 1013.9 |
| 20260904112648 | 66 | 172 | 0.0 | 0.0 | 0.00 | 0.00 | 0.00 | 100 | 1013.8 |
| 20260904112402 | 66 | 172 | 0.0 | 0.0 | 0.00 | 0.00 | 0.00 | 100 | 1013.7 |
| 20260904111616 | 66 | 172 | 0.0 | 0.0 | 0.00 | 0.00 | 0.00 | 100 | 1013.8 |